Location: Blackrock Ranger Station
(36.0936°N, 118.2611°W)
Time: 08:38:19
(UTC-07:00)

AO-7 - Pass Details

Date: 25 February 2026
Orbit: 1440 x 1458 km, 102.0° (Epoch: 15 March)

Event Time Altitude Azimuth Distance (km) Brightness Sun altitude
Rises 04:27:26 0° 40° (NE) 4,561 ? -25.1°
Reaches altitude 10° 04:32:52 10° 70° (ENE) 3,579 ? -24.1°
Maximum altitude 04:35:47 12° 91° (E) 3,414 ? -23.5°
Drops below altitude 10° 04:38:42 10° 112° (ESE) 3,574 ? -22.9°
Sets 04:44:02 0° 140° (SE) 4,547 ? -21.8°
